Back to catalog

STARLINK-11374

AliveCommunicationsVLEO
NORAD 61581·PAYLOAD·🇺🇸 United States

Launched Oct 18, 2024 from Cape Canaveral Space Force Station

Loading…

Next Passes (next 24 hours)

TLE

FreshSource: CelesTrak SupGP

Epoch: Sep 14, 2026, 21:27 UTC

1 61581C 24187H   26257.89423611  .00021159  00000+0  17428-3 0  2578
2 61581  53.1570  83.9052 0001152  84.9238 220.4387 15.69700253    19

Track STARLINK-11374 in real time with AllMySat

Download on the App Store